Regional Weather Roundup
Issued by NWS

Home | Current Version | Previous Version | Graphics & Text | Print | Product List | Glossary On
Versions: 1 2 3 4 5 6 7 8 9 10 11 12 13 14 15 16 17 18 19 20 21 22 23 24 25 26 27 28 29 30 31 32 33 34 35 36 37 38 39 40 41 42 43 44 45 46 47 48 49 50
415
ASUS45 KCYS 010710
RWRWY

WYOMING REGIONAL WEATHER ROUNDUP
NATIONAL WEATHER SERVICE CHEYENNE WY
100 AM MDT SUN MAY 01 2016

NOTE:  "FAIR" INDICATES FEW OR NO CLOUDS BELOW 12,000 FEET
WITH NO SIGNIFICANT WEATHER AND/OR OBSTRUCTIONS TO VISIBILITY.

WYZ001-010800-
YELLOWSTONE NATIONAL PARK

CITY           SKY/WX    TMP DP  RH WIND       PRES   REMARKS
LK YELLOWSTONE   N/A     31  22  69 VRB5      30.29S WCI  26
W YELLOWSTONE  NOT AVBL

$$
WYZ002>013-054>058-071-098>099-010800-
NORTHERN WYOMING

CITY           SKY/WX    TMP DP  RH WIND       PRES   REMARKS
JACKSON        FAIR      36  28  75 N13       30.22R WCI  27
CODY           FAIR      37  32  81 N3        30.30R
GREYBULL       FAIR      39  34  82 N5        30.27S
WORLAND        CLOUDY    42  36  79 SW3       30.27R
SHERIDAN       CLOUDY    43  35  73 CALM      30.30S
BUFFALO          N/A    N/A N/A N/A MISG      30.30S
GILLETTE       MOCLDY    30  27  88 CALM      30.28R
HULETT         CLOUDY    41  30  65 CALM      30.30R
NEWCASTLE      FAIR      34  27  75 N6        30.27R WCI  29

$$
WYZ014>020-022>026-101>103-010800-
CENTRAL WYOMING

CITY           SKY/WX    TMP DP  RH WIND       PRES   REMARKS
BIG PINEY      FAIR      30  24  78 S3        30.23R
PINEDALE       FAIR      30  28  93 NW7       30.23R WCI  23
DUBOIS         NOT AVBL
LANDER         CLOUDY    37  32  82 SW7       30.28R WCI  32
RIVERTON       CLOUDY    36  33  89 NW9       30.29R WCI  29
CASPER         MOCLDY    34  31  88 NE12      30.27R WCI  25
DOUGLAS        MOCLDY    33  30  88 W6        30.27R WCI  28

$$
WYZ021-027>030-104>119-010800-
SOUTHERN WYOMING

CITY           SKY/WX    TMP DP  RH WIND       PRES   REMARKS
EVANSTON       FAIR      33  25  72 E24G30    30.14S WCI  20
FORT BRIDGER   MOSUNNY   32  32 100 E14       30.21R WCI  22
ROCK SPRINGS   FAIR      33  26  75 E28       30.20R WCI  20
DIXON          FAIR      33  24  69 NE7       30.17R WCI  27
RAWLINS        CLOUDY    31  26  82 NE6       30.23R WCI  25
SARATOGA       PTSUNNY   32  23  69 NE10      30.22R WCI  24
LARAMIE        LGT SNOW  28  24  85 NE10      30.21R FOG     WCI  19
CHEYENNE       LGT SNOW  30  28  92 N17G26    30.21R FOG     WCI  18
TORRINGTON     CLOUDY    37  34  89 NW6       30.23R WCI  32
PINE BLUFFS    LGT SNOW  32  32 100 N17       30.20R WCI  21

$$




USA.gov is the U.S. government's official web portal to all federal, state and local government web resources and services.